Location: Tel Aviv
(32.0670°N, 34.7670°E)
Time: 02:24:39
(UTC+03:00)

Tiros 1 - Pass Details

Date: 26 January 2022
Orbit: 629 x 663 km, 48.4° (Epoch: 26 May)

Event Time Altitude Azimuth Distance (km) Brightness Sun altitude
Rises 02:54:52 0° 318° (NW) 2,983 - -47.3°
Reaches altitude 10° 02:57:46 10° 335° (NNW) 2,064 - -46.6°
Maximum altitude 03:01:18 20° 23° (NNE) 1,491 - -45.9°
Drops below altitude 10° 03:04:48 10° 71° (ENE) 2,044 - -45.2°
Exits shadow 03:06:07 - 81° (E) 2,438 10.8 -44.9°
Sets 03:07:39 0° 89° (E) 2,945 11.3 -44.6°
